• en Belgique
  • Liste des pays
  • À 7 jours
  • Température de l'eau
  • Carte satellitaire
  • Carte météo
  • Widgets météo
  • user-avatar
    Se connecter

    Météo par heure à Beringen

    Ce jour, 17 Août, Vendredi

    Heure Température Précipitation Vent Pression Humidité
    00:00 +18°C° 0,4 mm 2 m/s 758 mmHg 93%
    01:00 +18°C° 1,1 mm 2 m/s 758 mmHg 93%
    02:00 +19°C° 1,1 mm 1 m/s 758 mmHg 94%
    03:00 +19°C° 1,1 mm 1 m/s 759 mmHg 95%
    04:00 +19°C° 0,8 mm 1 m/s 759 mmHg 94%
    05:00 +19°C° 0,8 mm 1 m/s 759 mmHg 93%
    06:00 +19°C° 0,8 mm 1 m/s 759 mmHg 92%
    07:00 +19°C° 0,2 mm 2 m/s 759 mmHg 86%
    08:00 +20°C° 0,2 mm 2 m/s 760 mmHg 79%
    09:00 +20°C° 0,2 mm 3 m/s 760 mmHg 73%
    10:00 +21°C° 0 mm 3 m/s 760 mmHg 66%
    11:00 +22°C° 0 mm 3 m/s 760 mmHg 59%
    12:00 +24°C° 0 mm 3 m/s 761 mmHg 52%
    13:00 +24°C° 0 mm 3 m/s 761 mmHg 51%
    14:00 +24°C° 0 mm 3 m/s 761 mmHg 50%
    15:00 +23°C° 0 mm 4 m/s 761 mmHg 49%
    16:00 +22°C° 0 mm 3 m/s 761 mmHg 52%
    17:00 +22°C° 0 mm 3 m/s 761 mmHg 56%
    18:00 +21°C° 0 mm 3 m/s 761 mmHg 60%
    19:00 +19°C° 0 mm 2 m/s 762 mmHg 64%
    20:00 +18°C° 0 mm 2 m/s 762 mmHg 67%
    21:00 +16°C° 0 mm 2 m/s 763 mmHg 71%
    22:00 +16°C° 0 mm 1 m/s 763 mmHg 73%
    23:00 +15°C° 0 mm 1 m/s 763 mmHg 74%

    Demain, 18 Août, Samedi

    Heure Température Précipitation Vent Pression Humidité
    00:00 +15°C° 0 mm 1 m/s 763 mmHg 76%
    01:00 +14°C° 0 mm 2 m/s 763 mmHg 78%
    02:00 +14°C° 0 mm 2 m/s 763 mmHg 81%
    03:00 +14°C° 0 mm 2 m/s 763 mmHg 83%
    04:00 +14°C° 0 mm 2 m/s 763 mmHg 83%
    05:00 +15°C° 0 mm 2 m/s 763 mmHg 82%
    06:00 +14°C° 0 mm 3 m/s 763 mmHg 82%
    07:00 +17°C° 0 mm 3 m/s 763 mmHg 75%
    08:00 +19°C° 0 mm 3 m/s 763 mmHg 68%
    09:00 +21°C° 0 mm 3 m/s 764 mmHg 61%
    10:00 +22°C° 0 mm 3 m/s 763 mmHg 58%
    11:00 +22°C° 0 mm 3 m/s 763 mmHg 56%
    12:00 +23°C° 0 mm 4 m/s 763 mmHg 54%
    13:00 +23°C° 0 mm 4 m/s 763 mmHg 55%
    14:00 +23°C° 0 mm 4 m/s 763 mmHg 56%
    15:00 +23°C° 0 mm 4 m/s 762 mmHg 58%
    16:00 +24°C° 0 mm 3 m/s 763 mmHg 62%
    17:00 +22°C° 0 mm 3 m/s 763 mmHg 66%
    18:00 +21°C° 0 mm 2 m/s 763 mmHg 69%
    19:00 +20°C° 0 mm 2 m/s 763 mmHg 73%
    20:00 +19°C° 0 mm 2 m/s 764 mmHg 77%
    21:00 +19°C° 0 mm 1 m/s 764 mmHg 81%
    22:00 +18°C° 0 mm 1 m/s 764 mmHg 84%
    23:00 +18°C° 0 mm 1 m/s 764 mmHg 86%

    Après-demain, 19 Août, Dimanche

    Heure Température Précipitation Vent Pression Humidité
    00:00 +16°C° 0 mm 1 m/s 764 mmHg 89%
    01:00 +16°C° 0 mm 2 m/s 764 mmHg 90%
    02:00 +16°C° 0 mm 2 m/s 764 mmHg 91%
    03:00 +15°C° 0 mm 2 m/s 764 mmHg 92%
    04:00 +16°C° 0 mm 2 m/s 764 mmHg 91%
    05:00 +16°C° 0 mm 2 m/s 764 mmHg 89%
    06:00 +16°C° 0 mm 2 m/s 764 mmHg 87%
    07:00 +18°C° 0 mm 2 m/s 764 mmHg 80%
    08:00 +20°C° 0 mm 2 m/s 764 mmHg 73%
    09:00 +23°C° 0 mm 2 m/s 764 mmHg 66%
    10:00 +24°C° 0 mm 2 m/s 764 mmHg 62%
    11:00 +25°C° 0 mm 2 m/s 764 mmHg 59%
    12:00 +26°C° 0 mm 2 m/s 764 mmHg 55%
    13:00 +26°C° 0 mm 2 m/s 763 mmHg 55%
    14:00 +26°C° 0 mm 2 m/s 763 mmHg 55%
    15:00 +27°C° 0 mm 2 m/s 763 mmHg 54%
    16:00 +26°C° 0 mm 2 m/s 763 mmHg 59%
    17:00 +25°C° 0 mm 2 m/s 763 mmHg 64%
    18:00 +24°C° 0 mm 2 m/s 763 mmHg 69%
    19:00 +23°C° 0 mm 1 m/s 763 mmHg 73%
    20:00 +21°C° 0 mm 1 m/s 763 mmHg 78%
    21:00 +20°C° 0 mm 1 m/s 763 mmHg 83%
    22:00 +20°C° 0 mm 1 m/s 763 mmHg 85%
    23:00 +19°C° 0 mm 1 m/s 763 mmHg 86%

    20 Août, Lundi

    Heure Température Précipitation Vent Pression Humidité
    00:00 +18°C° 0 mm 2 m/s 763 mmHg 88%
    01:00 +18°C° 0 mm 2 m/s 762 mmHg 89%
    02:00 +17°C° 0 mm 2 m/s 762 mmHg 91%
    03:00 +17°C° 0 mm 2 m/s 762 mmHg 92%
    04:00 +17°C° 0 mm 2 m/s 762 mmHg 90%
    05:00 +18°C° 0 mm 3 m/s 762 mmHg 88%
    06:00 +18°C° 0 mm 3 m/s 762 mmHg 86%
    07:00 +19°C° 0 mm 3 m/s 762 mmHg 81%
    08:00 +21°C° 0 mm 4 m/s 762 mmHg 76%
    09:00 +22°C° 0 mm 4 m/s 762 mmHg 71%
    10:00 +22°C° 0 mm 4 m/s 762 mmHg 71%
    11:00 +23°C° 0 mm 4 m/s 762 mmHg 71%
    12:00 +23°C° 0 mm 4 m/s 761 mmHg 71%
    13:00 +23°C° 0,1 mm 4 m/s 761 mmHg 71%
    14:00 +23°C° 0,1 mm 4 m/s 761 mmHg 71%
    15:00 +24°C° 0,1 mm 3 m/s 761 mmHg 71%
    16:00 +24°C° 0 mm 3 m/s 761 mmHg 73%
    17:00 +22°C° 0 mm 3 m/s 761 mmHg 76%
    18:00 +23°C° 0 mm 2 m/s 761 mmHg 78%
    19:00 +21°C° 0 mm 2 m/s 761 mmHg 82%
    20:00 +20°C° 0 mm 2 m/s 762 mmHg 86%
    21:00 +20°C° 0 mm 1 m/s 762 mmHg 89%
    22:00 +19°C° 0 mm 2 m/s 762 mmHg 91%
    23:00 +18°C° 0 mm 2 m/s 762 mmHg 92%

    21 Août, Mardi

    Heure Température Précipitation Vent Pression Humidité
    00:00 +18°C° 0 mm 2 m/s 762 mmHg 94%
    01:00 +18°C° 0 mm 2 m/s 762 mmHg 95%
    02:00 +17°C° 0 mm 2 m/s 762 mmHg 95%
    03:00 +17°C° 0 mm 2 m/s 762 mmHg 96%
    04:00 +18°C° 0 mm 2 m/s 762 mmHg 95%
    05:00 +18°C° 0 mm 2 m/s 762 mmHg 93%
    06:00 +18°C° 0 mm 3 m/s 762 mmHg 92%
    07:00 +20°C° 0 mm 3 m/s 762 mmHg 85%
    08:00 +22°C° 0 mm 3 m/s 762 mmHg 78%
    09:00 +25°C° 0 mm 3 m/s 762 mmHg 71%
    10:00 +25°C° 0,1 mm 3 m/s 762 mmHg 67%
    11:00 +26°C° 0,1 mm 3 m/s 761 mmHg 64%
    12:00 +27°C° 0,1 mm 3 m/s 761 mmHg 60%
    13:00 +27°C° 0,1 mm 3 m/s 761 mmHg 60%
    14:00 +27°C° 0,1 mm 3 m/s 761 mmHg 60%
    15:00 +27°C° 0,1 mm 3 m/s 761 mmHg 60%
    16:00 +26°C° 0 mm 3 m/s 761 mmHg 63%
    17:00 +25°C° 0 mm 3 m/s 760 mmHg 66%
    18:00 +24°C° 0 mm 2 m/s 760 mmHg 69%
    19:00 +23°C° 0 mm 2 m/s 761 mmHg 73%
    20:00 +21°C° 0 mm 2 m/s 761 mmHg 77%
    21:00 +20°C° 0 mm 1 m/s 761 mmHg 81%
    22:00 +20°C° 0 mm 1 m/s 761 mmHg 83%
    23:00 +19°C° 0 mm 1 m/s 761 mmHg 86%

    22 Août, Mercredi

    Heure Température Précipitation Vent Pression Humidité
    00:00 +16°C° 0 mm 0 m/s 761 mmHg 88%
    01:00 +18°C° 0 mm 1 m/s 761 mmHg 88%
    02:00 +18°C° 0 mm 1 m/s 761 mmHg 88%
    03:00 +18°C° 0 mm 1 m/s 761 mmHg 89%
    04:00 +19°C° 0 mm 1 m/s 761 mmHg 87%
    05:00 +19°C° 0 mm 1 m/s 761 mmHg 86%
    06:00 +19°C° 0 mm 1 m/s 761 mmHg 84%
    07:00 +21°C° 0 mm 1 m/s 761 mmHg 78%
    08:00 +23°C° 0 mm 1 m/s 762 mmHg 72%
    09:00 +24°C° 0 mm 1 m/s 762 mmHg 66%
    10:00 +25°C° 0 mm 1 m/s 761 mmHg 63%
    11:00 +26°C° 0 mm 1 m/s 761 mmHg 60%
    12:00 +27°C° 0 mm 1 m/s 761 mmHg 57%
    13:00 +27°C° 0 mm 1 m/s 761 mmHg 57%
    14:00 +26°C° 0 mm 1 m/s 761 mmHg 57%
    15:00 +26°C° 0 mm 1 m/s 761 mmHg 58%
    16:00 +26°C° 0 mm 1 m/s 761 mmHg 62%
    17:00 +25°C° 0 mm 1 m/s 761 mmHg 65%
    18:00 +24°C° 0 mm 2 m/s 761 mmHg 69%
    19:00 +23°C° 0,1 mm 2 m/s 761 mmHg 72%
    20:00 +21°C° 0,1 mm 2 m/s 761 mmHg 75%
    21:00 +20°C° 0,1 mm 2 m/s 761 mmHg 78%
    22:00 +20°C° 0,1 mm 1 m/s 761 mmHg 80%
    23:00 +20°C° 0,1 mm 1 m/s 761 mmHg 82%
    Voir plus